TimeEST,TemperatureF,Dew PointF,Humidity,Sea Level PressureIn,VisibilityMPH,Wind Direction,Wind SpeedMPH,Gust SpeedMPH,PrecipitationIn,Events,Conditions,WindDirDegrees,DateUTC
12:16 AM,26.6,24.8,93,29.98,7.0,Calm,Calm,-,N/A,,Overcast,0,2007-01-24 05:16:00
12:36 AM,26.6,24.8,93,29.98,7.0,Calm,Calm,-,N/A,,Overcast,0,2007-01-24 05:36:00
12:56 AM,26.6,24.8,93,29.99,7.0,Calm,Calm,-,N/A,,Overcast,0,2007-01-24 05:56:00
1:16 AM,26.6,24.8,93,29.98,7.0,Calm,Calm,-,N/A,,Overcast,0,2007-01-24 06:16:00
1:36 AM,26.6,23.0,86,29.98,7.0,Calm,Calm,-,N/A,,Overcast,0,2007-01-24 06:36:00
1:56 AM,26.6,23.0,86,29.98,7.0,Calm,Calm,-,N/A,,Overcast,0,2007-01-24 06:56:00
2:16 AM,26.6,23.0,86,29.97,7.0,Calm,Calm,-,N/A,,Overcast,0,2007-01-24 07:16:00
2:36 AM,26.6,24.8,93,29.97,7.0,Calm,Calm,-,N/A,,Overcast,0,2007-01-24 07:36:00
2:56 AM,26.6,23.0,86,29.97,7.0,Calm,Calm,-,N/A,,Overcast,0,2007-01-24 07:56:00
3:16 AM,26.6,24.8,93,29.97,7.0,Calm,Calm,-,N/A,,Overcast,0,2007-01-24 08:16:00
3:36 AM,26.6,24.8,93,29.98,7.0,Calm,Calm,-,N/A,,Overcast,0,2007-01-24 08:36:00
3:56 AM,26.6,23.0,86,29.97,7.0,Calm,Calm,-,N/A,,Overcast,0,2007-01-24 08:56:00
4:16 AM,26.6,24.8,93,29.97,7.0,SSW,3.5,-,N/A,,Overcast,200,2007-01-24 09:16:00
4:36 AM,26.6,24.8,93,29.97,7.0,SW,3.5,-,N/A,,Overcast,230,2007-01-24 09:36:00
4:58 AM,26.6,24.8,93,29.98,5.0,Calm,Calm,-,N/A,Snow,Light Snow,0,2007-01-24 09:58:00
5:16 AM,26.6,23.0,86,29.98,5.0,Calm,Calm,-,N/A,Snow,Light Snow,0,2007-01-24 10:16:00
5:38 AM,26.6,23.0,86,29.99,5.0,SW,3.5,-,N/A,Snow,Light Snow,230,2007-01-24 10:38:00
5:56 AM,26.6,23.0,86,30.00,5.0,WSW,4.6,-,N/A,Snow,Light Snow,240,2007-01-24 10:56:00
6:16 AM,26.6,23.0,86,30.01,5.0,WSW,3.5,-,N/A,Snow,Light Snow,240,2007-01-24 11:16:00
6:36 AM,26.6,23.0,86,30.01,4.0,SW,6.9,-,N/A,Snow,Light Snow,230,2007-01-24 11:36:00
6:56 AM,26.6,23.0,86,30.02,5.0,SSW,3.5,-,N/A,Snow,Light Snow,210,2007-01-24 11:56:00
7:16 AM,26.6,23.0,86,30.02,4.0,SW,4.6,-,N/A,Snow,Light Snow,220,2007-01-24 12:16:00
7:36 AM,26.6,23.0,86,30.02,4.0,SSW,6.9,-,N/A,Snow,Light Snow,210,2007-01-24 12:36:00
7:56 AM,26.6,23.0,86,30.02,5.0,SSW,6.9,-,N/A,Snow,Light Snow,200,2007-01-24 12:56:00
8:16 AM,26.6,23.0,86,30.02,5.0,SSW,5.8,-,N/A,Snow,Light Snow,200,2007-01-24 13:16:00
8:36 AM,26.6,24.8,93,30.03,4.0,SSW,5.8,-,N/A,Snow,Light Snow,210,2007-01-24 13:36:00
8:56 AM,26.6,24.8,93,30.03,1.8,SW,4.6,-,N/A,Snow,Light Snow,220,2007-01-24 13:56:00
9:16 AM,26.6,24.8,93,30.03,1.2,SW,5.8,-,N/A,Snow,Light Snow,230,2007-01-24 14:16:00
9:36 AM,26.6,24.8,93,30.03,1.2,SW,4.6,-,N/A,Snow,Light Snow,230,2007-01-24 14:36:00
9:56 AM,26.6,24.8,93,30.03,1.2,SW,4.6,-,N/A,Snow,Light Snow,230,2007-01-24 14:56:00
10:18 AM,28.4,24.8,86,30.03,2.5,West,5.8,-,N/A,Snow,Light Snow,260,2007-01-24 15:18:00
10:36 AM,28.4,26.6,93,30.04,3.0,West,6.9,-,N/A,Snow,Light Snow,260,2007-01-24 15:36:00
10:56 AM,28.4,26.6,93,30.04,4.0,West,9.2,-,N/A,Snow,Light Snow,280,2007-01-24 15:56:00
11:16 AM,28.4,26.6,93,30.04,1.8,WNW,6.9,-,N/A,Snow,Light Snow,290,2007-01-24 16:16:00
11:36 AM,30.2,26.6,86,30.04,1.8,West,11.5,-,N/A,Snow,Light Snow,280,2007-01-24 16:36:00
11:56 AM,30.2,24.8,80,30.04,7.0,West,8.1,-,N/A,Snow,Light Snow,260,2007-01-24 16:56:00
12:16 PM,30.2,24.8,80,30.03,10.0,West,9.2,-,N/A,,Overcast,270,2007-01-24 17:16:00
12:36 PM,30.2,24.8,80,30.03,10.0,WSW,11.5,-,N/A,,Overcast,250,2007-01-24 17:36:00
12:56 PM,30.2,23.0,75,30.03,7.0,West,15.0,-,N/A,Snow,Light Snow,270,2007-01-24 17:56:00
1:16 PM,30.2,24.8,80,30.02,10.0,West,10.4,-,N/A,Snow,Light Snow,270,2007-01-24 18:16:00
1:36 PM,30.2,23.0,75,30.02,7.0,West,12.7,16.1,N/A,Snow,Light Snow,270,2007-01-24 18:36:00
1:56 PM,30.2,23.0,75,30.02,5.0,West,12.7,-,N/A,Snow,Light Snow,280,2007-01-24 18:56:00
2:16 PM,30.2,23.0,75,30.03,10.0,West,11.5,18.4,N/A,Snow,Light Snow,270,2007-01-24 19:16:00
2:36 PM,30.2,21.2,69,30.03,7.0,West,16.1,20.7,N/A,Snow,Light Snow,270,2007-01-24 19:36:00
3:16 PM,30.2,19.4,64,30.03,10.0,West,11.5,20.7,N/A,,Overcast,260,2007-01-24 20:16:00
3:37 PM,30.2,19.4,64,30.03,10.0,West,13.8,18.4,N/A,,Overcast,260,2007-01-24 20:37:00
3:57 PM,30.2,19.4,64,30.03,10.0,West,13.8,-,N/A,,Overcast,260,2007-01-24 20:57:00
4:17 PM,28.4,19.4,69,30.03,10.0,WSW,10.4,18.4,N/A,,Overcast,240,2007-01-24 21:17:00
4:36 PM,28.4,19.4,69,30.04,10.0,West,12.7,-,N/A,,Overcast,270,2007-01-24 21:36:00
4:58 PM,28.4,21.2,74,30.04,4.0,West,12.7,-,N/A,Snow,Light Snow,270,2007-01-24 21:58:00
5:16 PM,26.6,23.0,86,30.04,2.5,West,10.4,-,N/A,Snow,Light Snow,270,2007-01-24 22:16:00
5:36 PM,26.6,21.2,80,30.05,4.0,West,13.8,-,N/A,Snow,Light Snow,270,2007-01-24 22:36:00
5:56 PM,26.6,21.2,80,30.05,7.0,West,9.2,17.3,N/A,Snow,Light Snow,270,2007-01-24 22:56:00
6:16 PM,26.6,21.2,80,30.05,10.0,West,8.1,-,N/A,,Overcast,260,2007-01-24 23:16:00
6:36 PM,26.6,19.4,74,30.05,10.0,West,10.4,-,N/A,,Overcast,270,2007-01-24 23:36:00
6:56 PM,26.6,19.4,74,30.05,10.0,West,11.5,-,N/A,,Overcast,280,2007-01-24 23:56:00
7:16 PM,26.6,19.4,74,30.05,10.0,West,9.2,-,N/A,,Overcast,270,2007-01-25 00:16:00
7:38 PM,26.6,19.4,74,30.05,10.0,West,9.2,-,N/A,,Overcast,270,2007-01-25 00:38:00
7:56 PM,26.6,19.4,74,30.06,10.0,West,9.2,-,N/A,,Overcast,270,2007-01-25 00:56:00
8:16 PM,26.6,19.4,74,30.06,10.0,West,6.9,-,N/A,,Overcast,270,2007-01-25 01:16:00
8:36 PM,26.6,19.4,74,30.05,10.0,West,5.8,-,N/A,,Overcast,260,2007-01-25 01:36:00
8:56 PM,26.6,19.4,74,30.05,10.0,WSW,5.8,-,N/A,,Overcast,250,2007-01-25 01:56:00
9:16 PM,26.6,19.4,74,30.05,7.0,West,5.8,-,N/A,Snow,Light Snow,260,2007-01-25 02:16:00
9:36 PM,26.6,19.4,74,30.05,7.0,West,4.6,-,N/A,Snow,Light Snow,260,2007-01-25 02:36:00
9:56 PM,26.6,19.4,74,30.05,7.0,WSW,4.6,-,N/A,Snow,Light Snow,250,2007-01-25 02:56:00
10:16 PM,26.6,19.4,74,30.05,7.0,SW,4.6,-,N/A,Snow,Light Snow,230,2007-01-25 03:16:00
10:36 PM,26.6,19.4,74,30.05,7.0,WSW,4.6,-,N/A,Snow,Light Snow,240,2007-01-25 03:36:00
10:58 PM,26.6,21.2,80,30.05,3.0,SW,3.5,-,N/A,Snow,Light Snow,230,2007-01-25 03:58:00
11:16 PM,24.8,21.2,86,30.05,1.8,WSW,3.5,-,N/A,Snow,Light Snow,240,2007-01-25 04:16:00
11:36 PM,24.8,21.2,86,30.05,1.8,WSW,3.5,-,N/A,Snow,Light Snow,240,2007-01-25 04:36:00
11:56 PM,24.8,23.0,93,30.05,1.8,WSW,3.5,-,N/A,Snow,Light Snow,240,2007-01-25 04:56:00